SCP
0 0 0 0 0 0 0 0 0 0 0 0 0 0 0 0 0 0 0 0 0 0 0 0 0 0 0 0 0 0 0 0 0 0 0 0 0 0 0 0 0 0 0 0 0 0 0 0 0 0 0 0 0 0
0 0 0 0 0 0 0 0 0 0 0 0 0 0 0 0 0 0 0 0 0 0 0 0 0 0 0 0 0 0 0 0 0 0 0 0 0 0 0 0 0 0 0 0 0 0 0 0 0 0 0 0 0 0
0 0 0 0 0 0 0 0 0 0 0 0 0 0 0 0 0 0 0 0 0 0 0 0 0 0 0 0 0 0 0 0 0 0 0 0 0 0 0 0 0 0 0 0 0 0 0 0 0 0 0 0 0 0
0 0 0 0 0 0 0 0 0 0 0 0 0 0 0 0 0 0 0 0 0 0 0 0 0 0 0 0 0 0 0 0 0 0 0 0 0 0 0 0 0 0 0 0 0 0 0 0 0 0 0 0 0 0
0 0 0 0 0 0 0 0 0 0 0 0 0 0 0 0 0 0 0 0 0 0 0 0 0 0 0 0 0 0 0 0 0 0 0 0 0 0 0 0 0 0 0 0 0 0 0 0 0 0 0 0 0 0
0 0 0 0 0 0 0 0 0 0 0 0 0 0 0 0 0 0 0 0 0 0 0 0 0 0 0 0 0 0 0 0 0 0 0 0 0 0 0 0 0 0 0 0 0 0 0 0 0 0 0 0 0 0
0 0 0 0 0 0 0 0 0 0 0 0 0 0 0 0 0 0 0 0 0 0 0 0 0 0 0 0 0 0 0 0 0 0 0 0 0 0 0 0 0 0 0 0 0 0 0 0 0 0 0 0 0 0
0 0 0 0 0 0 0 0 0 0 0 0 0 0 0 0 0 0 0 0 0 0 0 1 0 0 0 0 0 0 0 0 0 0 0 0 0 0 0 0 0 0 0 0 0 0 0 0 0 0 0 0 0 0
0 0 0 0 0 0 0 0 0 0 0 0 0 0 0 0 0 0 0 0 0 0 1 2 0 0 0 0 0 0 0 0 0 0 0 0 0 0 0 0 0 0 0 0 0 0 0 0 0 0 0 0 0 0
0 0 0 0 0 0 0 0 0 0 0 0 0 0 0 0 0 0 0 0 0 1 1 1 0 0 0 0 0 0 0 0 0 0 0 0 0 0 0 0 0 0 0 0 0 0 0 0 0 0 0 0 0 0
0 0 0 0 0 0 0 0 0 0 0 0 0 0 0 0 0 0 0 0 0 0 0 0 0 0 0 0 0 0 0 0 0 0 0 0 0 0 0 0 0 0 0 0 0 0 0 0 0 0 0 0 0 0
0 0 0 0 0 0 0 0 0 0 0 0 0 0 0 0 0 0 0 0 0 0 0 0 0 0 0 0 0 0 0 0 0 0 0 0 0 0 0 0 0 0 0 0 0 0 0 0 0 0 0 0 0 0
0 0 0 0 0 0 0 0 0 0 0 0 0 0 0 0 0 0 0 0 0 0 0 0 0 0 0 0 0 0 0 0 0 0 0 0 0 0 0 0 0 0 0 0 0 0 0 0 0 0 0 0 0 0
0 0 0 0 0 0 0 0 0 0 0 0 0 0 0 0 0 0 0 0 0 0 0 0 0 0 0 0 0 0 0 0 0 0 0 0 0 0 0 0 0 0 0 0 0 0 0 0 0 0 0 0 0 0
0 0 0 0 0 0 0 0 0 0 0 0 0 0 0 0 0 0 0 0 0 0 0 0 0 0 0 0 0 0 0 0 0 0 0 0 0 0 0 0 0 0 0 0 0 0 0 0 0 0 0 0 0 0
0 0 0 0 0 0 0 0 0 0 0 0 0 0 0 0 0 0 0 0 0 0 0 0 0 0 0 0 0 0 0 0 0 0 0 0 0 0 0 0 0 0 0 0 0 0 0 0 0 0 0 0 0 0
0 0 0 0 0 0 0 0 0 0 0 0 0 0 0 0 0 0 0 0 0 0 0 0 0 0 0 0 0 0 0 0 0 0 0 0 0 0 0 0 0 0 0 0 0 0 0 0 0 0 0 0 0 0
0 0 0 0 0 0 0 0 0 0 0 0 0 0 0 0 0 0 0 0 0 0 0 0 0 0 0 0 0 0 0 0 0 0 0 0 0 0 0 0 0 0 0 0 0 0 0 0 0 0 0 0 0 0
0 0 0 0 0 0 0 0 0 0 0 0 0 0 0 0 0 0 0 0 0 0 0 0 0 0 0 0 0 0 0 0 0 0 0 0 0 0 0 0 0 0 0 0 0 0 0 0 0 0 0 0 0 0
0 0 0 0 0 0 0 0 0 0 0 0 0 0 0 0 0 0 0 0 0 0 0 0 0 0 0 0 0 0 0 0 0 0 0 0 0 0 0 0 0 0 0 0 0 0 0 0 0 0 0 0 0 0
0 0 0 0 0 0 0 0 0 0 0 0 0 0 0 0 0 0 0 0 0 0 0 0 0 0 0 0 0 0 0 0 0 0 0 0 0 0 0 0 0 0 0 0 0 0 0 0 0 0 0 0 0 0
0 0 0 0 0 0 0 0 0 0 0 0 0 0 0 0 0 0 0 0 0 0 0 0 0 0 0 0 0 0 0 0 0 0 0 0 0 0 0 0 0 0 0 0 0 0 0 0 0 0 0 0 0 0
0 0 0 0 0 0 0 0 0 0 0 0 0 0 0 0 0 0 0 0 0 0 0 0 0 0 0 0 0 0 0 0 0 0 0 0 0 0 0 0 0 0 0 0 0 0 0 0 0 0 0 0 0 0
0 0 0 0 0 0 0 0 0 0 0 0 0 0 0 0 0 0 0 0 0 0 0 0 0 0 0 0 0 0 0 0 0 0 0 0 0 0 0 0 0 0 0 0 0 0 0 0 0 0 0 0 0 0
0 0 0 0 0 0 0 0 0 0 0 0 0 0 0 0 0 0 0 0 0 0 0 0 0 0 0 0 0 0 0 0 0 0 0 0 0 0 0 0 0 0 0 0 0 0 0 0 0 0 0 0 0 0
0 0 0 0 0 0 0 0 0 0 0 0 0 0 0 0 0 0 0 0 0 0 0 0 0 0 0 0 0 0 0 0 0 0 0 0 0 0 0 0 0 0 0 0 0 0 0 0 0 0 0 0 0 0
0 0 0 0 0 0 0 0 0 0 0 0 0 0 0 0 0 0 0 0 0 0 0 0 0 0 0 0 0 0 0 0 0 0 0 0 0 0 0 0 0 0 0 0 0 0 0 0 0 0 0 0 0 0
0 0 0 0 0 0 0 0 0 0 0 0 0 0 -0 -0 -0 0 0 0 0 0 0 0 0 0 0 0 -0 -0 -0 0 0 0 0 0 0 0 0 0 0 0 0 0 0 0 0 0 0 0 0 0 0 0
0 0 0 0 0 0 0 0 0 0 0 0 0 0 -0 0 0 0 0 0 0 0 0 0 0 0 0 0 0 0 0 0 0 -0 -0 -0 0 0 0 0 0 0 0 0 0 0 0 0 0 0 0 0 0 0
0 0 0 0 0 0 0 0 0 0 0 0 0 0 0 0 0 0 0 0 0 0 0 0 0 0 0 0 0 0 0 0 -0 -0 0 0 0 0 0 0 0 0 0 0 0 0 0 0 0 0 0 0 0 0
0 0 0 0 0 0 0 0 0 0 0 0 0 0 0 0 0 0 0 0 0 0 0 0 0 -0 0 0 0 0 0 0 0 0 0 0 -0 -0 0 0 0 0 0 0 0 -0 -0 -0 -0 -0 -0 0 0 0
0 0 0 0 0 0 0 0 0 0 0 0 0 0 0 0 0 0 0 0 0 0 0 0 0 -0 -0 0 0 0 0 0 0 0 -0 0 0 0 0 0 0 0 0 0 0 0 -0 -0 -0 -0 0 0 0 0
0 0 0 0 0 0 0 0 0 0 0 0 0 0 0 0 0 0 0 0 0 0 0 0 0 -0 -0 -0 -0 0 0 0 -0 -0 -0 -0 -0 0 -0 0 0 -0 0 0 0 -0 -0 0 -0 -0 -0 0 0 0
Wind_Speed_500mb
100 92 85 85 86 84 82 79 76 72 67 65 60 55 52 52 48 47 51 43 40 22 42 39 37 39 22 19 10 19 10 7 4 6 9 10 9 12 4 10 16 20 19 11 6 10 25 33 19 18 27 32 46 33
113 114 108 96 90 90 85 82 80 77 74 70 66 63 58 56 55 52 64 58 48 52 40 34 45 71 71 62 43 33 12 20 30 5 6 1 8 7 11 10 0 8 18 12 25 19 14 42 56 75 81 67 77 71
99 112 119 117 102 95 90 85 83 81 77 75 73 70 66 63 61 64 69 69 58 59 70 79 84 90 85 83 74 37 33 50 35 35 18 7 10 7 11 16 15 12 24 10 4 47 57 82 90 87 76 77 87 75
91 102 109 112 109 103 95 90 85 82 80 79 79 77 75 72 70 69 76 81 73 33 17 52 86 82 87 75 74 84 88 44 54 47 25 7 7 31 12 22 27 19 27 18 39 63 90 79 100 79 70 64 47 55
91 80 96 102 113 108 100 96 90 84 80 80 81 84 83 80 77 77 82 89 89 67 15 16 49 63 62 67 79 80 91 87 51 20 12 12 14 9 21 5 20 27 33 20 33 83 65 75 82 48 61 75 77 76
86 87 84 87 92 97 98 92 89 96 91 91 85 82 87 88 78 72 48 90 95 98 33 8 31 64 83 92 89 84 88 83 58 25 20 26 28 23 11 40 24 71 86 89 81 108 94 97 98 97 97 97 71 67
84 86 85 86 83 86 92 91 90 88 86 89 86 83 77 84 83 78 40 21 52 59 25 16 15 31 60 79 81 77 70 45 43 27 20 15 19 29 10 48 59 69 58 64 75 79 73 85 71 72 73 85 77 68
89 92 94 90 91 94 92 95 96 92 86 78 84 77 77 70 67 78 88 83 49 54 17 7 8 7 32 19 18 25 25 41 28 20 11 11 10 17 22 25 80 74 65 70 74 79 93 93 86 85 78 74 68 61
94 98 100 99 101 100 95 94 95 87 84 80 77 71 64 51 35 72 73 53 60 42 12 14 8 6 24 16 15 18 20 5 10 6 8 14 7 18 35 54 67 68 64 69 49 44 51 60 72 81 78 71 65 58
82 90 94 98 105 102 99 97 94 88 82 72 68 37 18 24 47 37 25 35 50 25 20 10 12 8 24 34 14 14 10 6 6 8 9 7 23 89 79 82 67 63 61 58 55 60 59 61 61 59 58 53 51 49
55 69 88 94 96 100 99 94 89 81 68 52 23 28 23 34 35 19 12 16 16 7 22 27 55 20 35 8 9 24 7 4 6 6 10 7 12 8 23 45 55 52 47 38 39 41 45 48 49 47 44 35 33 36
36 46 52 64 89 99 102 97 87 74 68 44 25 32 36 19 12 13 10 8 13 15 14 9 19 28 17 17 8 13 9 5 12 10 5 8 9 3 7 17 23 24 24 22 23 22 20 18 19 20 20 17 17 20
37 33 36 45 51 65 79 87 86 78 78 50 24 16 14 20 9 17 22 12 11 14 27 25 5 21 15 15 9 7 11 12 15 5 10 9 2 11 15 15 12 11 13 10 11 13 14 14 13 12 11 11 13 15
44 40 34 32 36 50 59 73 78 78 51 29 24 14 16 12 15 16 8 7 19 21 40 36 15 6 11 7 6 11 4 5 9 10 14 4 9 12 15 17 16 18 18 17 17 18 18 17 17 17 19 18 18 15
38 42 43 39 29 24 34 54 73 89 37 20 21 13 18 12 7 14 23 22 18 44 60 21 10 8 4 7 4 9 6 12 13 10 5 1 9 12 14 16 19 20 21 22 24 22 21 22 22 21 22 23 23 23
29 33 45 41 38 29 23 64 80 58 19 16 15 10 4 8 3 5 17 18 41 50 29 13 8 8 9 9 10 17 14 18 7 5 8 15 21 23 20 21 24 25 26 28 28 28 29 29 30 29 28 27 26 24
35 43 35 29 32 31 44 61 40 12 14 12 6 9 15 7 10 18 21 27 53 46 8 6 15 14 6 7 8 9 8 2 13 22 25 21 21 19 17 18 22 26 30 34 33 33 34 34 36 35 35 35 35 34
33 32 35 28 27 26 32 36 15 9 6 3 5 7 7 15 22 16 22 37 32 18 19 8 12 8 9 9 6 4 9 26 24 21 19 16 12 10 14 22 28 29 28 27 30 33 33 34 35 37 39 39 40 37
34 28 36 33 33 20 18 15 8 6 4 7 14 13 10 11 12 17 21 46 22 18 18 10 4 6 5 3 5 14 27 15 13 12 12 10 13 20 22 21 23 25 27 30 34 36 37 37 37 38 40 42 43 41
38 43 51 44 35 16 8 7 8 7 4 7 10 10 11 12 14 15 20 27 20 11 4 5 2 4 7 9 17 29 24 17 11 9 9 7 7 10 14 19 24 29 32 33 35 37 39 39 37 41 42 43 44 42
28 30 61 51 25 9 7 7 7 7 9 8 11 9 8 11 8 6 7 13 4 7 4 7 15 20 21 20 16 10 7 9 4 6 8 10 12 18 23 25 27 31 37 41 45 46 44 47 46 44 47 47 47 46
15 56 42 38 9 9 8 7 12 12 7 8 7 7 8 3 5 6 5 3 4 4 7 12 27 27 18 12 5 2 4 6 9 12 16 20 26 28 33 36 40 43 47 51 55 54 55 53 53 55 54 55 53 52
27 36 17 11 9 7 6 14 7 5 5 3 4 5 4 4 5 4 2 2 4 9 13 16 19 11 10 11 5 7 9 11 16 18 21 28 34 39 45 47 50 56 63 66 60 61 64 64 62 59 54 51 52 54
25 12 8 9 9 7 11 6 7 8 7 4 4 5 0 0 3 5 2 6 7 18 24 21 17 14 15 12 9 9 13 18 24 28 33 42 50 55 57 64 68 70 65 66 67 66 61 56 50 49 49 52 54 56
8 7 11 7 6 9 8 7 4 5 5 3 6 3 2 2 4 2 4 5 7 10 14 18 16 18 16 13 14 19 25 32 40 48 50 59 67 75 78 77 78 77 68 61 57 52 51 52 53 53 52 51 54 55
5 4 2 8 5 7 9 10 9 9 8 5 2 2 2 4 4 6 6 6 9 14 16 16 13 9 8 14 24 33 42 49 56 64 68 66 64 65 72 75 79 77 63 52 51 55 59 57 55 54 55 52 48 46
7 7 4 7 12 21 12 12 10 6 8 11 8 7 5 6 10 7 8 14 12 14 10 6 6 13 22 30 37 43 48 53 57 60 60 59 56 51 53 58 62 60 54 54 54 56 60 62 61 59 58 54 48 42
5 11 11 10 7 5 12 8 10 11 9 13 16 9 18 17 11 12 11 19 17 13 7 9 19 27 33 39 46 50 49 50 52 54 51 40 34 32 29 37 44 48 52 52 53 53 53 53 53 52 50 50 47 35
5 17 16 5 3 3 6 9 10 10 26 32 9 8 9 10 17 18 21 18 11 6 12 20 27 33 37 38 40 42 42 42 39 37 39 39 36 30 35 37 40 40 41 42 38 38 39 40 40 42 43 43 38 30
6 15 8 3 5 3 2 5 10 33 23 26 15 14 12 12 21 20 16 10 8 13 17 22 28 31 35 36 31 24 24 20 24 30 35 35 39 41 44 43 41 39 38 37 37 33 25 24 22 20 21 20 17 15
16 5 6 7 5 6 10 22 32 23 20 15 14 10 13 13 17 15 10 10 9 10 15 19 23 25 23 20 17 12 9 16 19 21 24 28 33 37 40 43 42 41 39 37 33 29 25 22 19 16 12 9 6 4
3 4 5 5 2 11 15 6 9 6 6 6 6 10 14 12 10 10 9 7 3 4 5 9 11 13 16 18 20 20 20 19 20 20 21 25 32 37 36 35 34 34 34 33 30 25 20 17 14 14 14 14 14 14
5 6 8 11 6 1 5 9 8 6 9 7 8 6 7 5 8 13 10 9 8 8 8 10 14 16 16 17 17 17 18 20 22 24 27 30 31 31 32 34 35 34 33 31 33 33 30 25 24 22 21 21 23 23
Wind_Direction_500mb
245 246 245 244 245 244 245 248 249 250 249 250 248 246 247 251 251 254 258 251 238 243 256 240 236 217 184 198 161 159 116 198 116 186 191 218 208 218 246 174 182 170 168 201 198 224 277 171 125 185 267 292 302 298
244 244 246 250 246 245 244 246 248 249 250 249 248 247 246 246 248 250 254 251 246 237 259 261 255 255 254 254 250 196 214 172 187 148 234 111 213 188 205 244 158 210 202 199 197 222 242 209 254 273 282 288 291 293
245 244 242 245 247 244 242 242 244 246 247 249 249 248 247 246 245 245 253 256 245 242 254 257 256 264 256 254 252 236 237 235 217 224 185 207 228 152 201 234 199 233 217 229 275 251 259 265 275 278 287 288 293 294
250 249 240 238 242 246 243 242 242 245 246 247 247 248 248 246 246 244 246 251 249 247 242 246 259 253 264 255 246 247 245 238 237 228 212 209 204 194 221 251 236 204 152 216 248 268 275 274 267 279 288 288 288 299
243 248 239 235 237 239 241 243 242 245 248 251 252 251 249 248 246 248 249 248 249 230 261 252 235 249 260 254 253 250 239 232 225 187 210 224 218 208 244 284 235 186 224 223 250 260 261 280 292 297 296 296 299 304
244 243 243 241 241 238 239 242 244 246 252 254 255 257 255 249 246 246 253 250 245 246 252 264 268 240 239 241 244 244 240 228 215 199 218 232 222 200 255 263 238 241 239 237 246 258 267 275 280 284 285 291 295 294
250 251 244 241 242 241 242 244 247 250 255 256 256 256 261 258 252 231 231 252 237 226 228 279 256 226 223 224 231 232 228 214 214 221 232 225 198 204 254 260 268 262 259 260 258 264 272 273 276 286 286 291 295 297
248 248 248 245 240 239 240 242 245 248 252 256 255 258 260 262 266 254 253 253 244 193 215 237 265 187 177 176 195 207 203 203 207 217 223 197 210 221 256 259 266 267 271 271 269 267 265 275 278 285 291 294 295 294
245 250 250 246 243 242 241 242 244 249 250 252 257 262 270 260 231 246 261 253 246 220 224 214 234 240 166 172 186 180 189 180 214 237 214 175 204 228 241 256 265 272 266 271 278 278 274 277 285 290 290 290 289 288
245 244 245 246 241 241 243 241 241 243 248 251 253 247 204 205 235 245 213 193 198 207 238 246 212 214 176 181 183 138 188 229 194 231 162 220 250 250 258 267 279 277 276 280 287 286 287 282 285 286 286 287 282 278
263 254 244 242 242 240 238 237 240 243 244 237 219 203 194 186 170 189 178 186 168 226 220 223 206 213 226 159 172 198 173 203 207 207 189 236 260 255 270 266 269 279 290 295 287 281 279 281 289 293 297 295 282 272
251 263 262 248 242 240 237 235 232 235 231 226 210 177 155 173 183 163 189 194 209 219 199 199 189 185 166 168 138 174 173 145 235 135 179 254 234 91 318 316 309 300 293 293 294 290 286 291 298 304 308 313 303 282
245 250 258 262 253 238 234 232 229 230 229 211 195 156 183 157 180 212 184 204 207 197 184 169 164 156 141 177 113 144 162 205 112 213 231 237 155 7 356 0 354 344 332 329 329 334 342 347 347 340 332 315 301 284
245 244 246 243 249 247 236 228 219 214 195 193 161 179 209 194 202 204 190 177 183 167 148 145 112 161 146 156 138 158 165 128 176 218 238 301 7 23 32 26 32 33 27 21 21 16 9 360 350 348 338 331 322 308
249 248 247 242 238 239 236 222 214 204 191 186 166 216 199 216 212 192 176 144 138 161 148 120 104 155 150 124 162 95 150 228 214 234 218 81 67 58 51 47 43 35 28 23 19 12 8 2 357 359 354 350 344 334
244 259 245 242 237 226 191 182 179 185 190 182 229 157 132 146 146 177 184 147 160 151 134 132 150 162 199 158 160 203 177 220 211 159 123 114 90 69 59 57 50 43 36 32 29 26 21 12 1 4 359 354 344 332
224 236 251 240 231 221 198 194 201 228 208 187 224 168 157 84 149 180 184 186 171 159 182 156 174 196 113 176 215 190 219 136 121 99 113 115 100 86 69 49 39 31 21 13 9 11 7 1 357 357 357 356 353 346
249 235 233 229 222 206 197 199 210 225 216 143 171 152 147 130 142 154 180 173 165 192 150 184 125 181 192 188 225 208 122 119 119 115 111 101 84 55 28 15 12 7 356 344 340 340 339 335 334 334 330 328 328 328
240 205 221 217 201 186 178 192 205 164 138 120 117 130 118 126 125 149 170 177 181 164 146 146 175 203 190 138 136 146 147 142 131 99 89 67 30 10 7 354 342 334 332 331 331 329 326 324 323 321 318 315 312 311
233 195 199 205 196 192 163 138 141 129 138 137 123 113 115 117 125 135 157 171 158 136 137 178 176 102 125 149 156 143 136 132 119 58 16 360 331 319 326 327 328 327 326 327 326 325 321 318 317 318 318 317 315 314
217 218 190 191 176 150 130 133 99 109 118 101 115 115 97 110 108 104 90 131 152 171 146 119 127 121 125 124 123 110 71 33 338 277 270 285 306 312 319 323 318 317 317 316 315 313 308 309 309 310 311 310 309 305
217 184 173 169 122 121 109 113 117 109 99 109 87 72 69 72 72 59 56 81 160 154 143 144 153 142 123 108 104 94 178 224 255 278 287 292 298 308 311 312 308 306 307 310 309 308 306 306 305 303 301 299 297 293
209 176 145 123 113 96 107 124 98 58 96 87 75 77 41 68 44 72 46 228 219 178 152 139 156 166 157 159 195 234 254 274 280 286 290 289 292 297 300 301 301 302 305 305 304 300 303 305 300 297 294 291 290 289
189 168 121 107 101 114 128 72 89 95 87 65 92 108 214 22 41 61 194 266 210 177 182 183 184 193 197 217 202 224 267 279 278 281 289 293 295 297 299 299 300 300 299 298 300 301 298 295 292 289 290 291 291 292
195 142 124 92 111 123 114 120 97 95 112 163 118 140 171 56 85 100 207 266 212 195 188 187 200 206 218 233 265 279 288 297 299 299 301 300 302 302 300 300 299 300 305 307 304 299 295 292 292 294 296 295 295 295
103 1 185 158 126 139 159 128 157 144 122 119 89 100 89 95 98 226 226 191 163 147 149 161 175 203 259 293 303 304 303 301 299 298 301 303 303 304 303 302 303 304 310 305 299 294 292 295 298 299 298 299 298 295
141 182 110 90 120 124 91 72 90 108 138 160 168 154 126 141 217 242 195 181 161 159 168 197 262 295 300 301 299 298 299 300 301 303 306 308 309 304 298 298 300 302 299 296 294 295 297 299 298 298 297 295 295 293
115 157 157 177 111 127 125 126 158 175 159 156 130 166 168 183 206 167 174 174 179 184 212 281 299 303 305 307 308 307 308 310 311 312 313 317 320 317 320 314 308 305 303 301 300 298 299 298 297 298 296 296 298 297
96 141 139 70 81 181 188 158 183 163 145 163 130 179 211 161 157 153 154 166 186 249 297 302 305 308 309 310 309 309 313 315 319 324 331 340 344 345 341 336 329 323 317 313 308 303 301 300 299 300 300 299 300 297
151 162 99 77 132 134 29 93 122 144 138 148 129 123 128 128 155 166 176 193 256 286 297 304 306 316 316 312 313 319 322 332 334 340 343 348 344 349 350 349 347 344 340 337 335 333 330 317 315 315 315 311 301 291
142 146 83 47 76 46 105 113 134 131 138 144 128 112 123 137 166 183 201 233 256 291 308 324 329 328 320 328 349 10 11 1 357 356 344 346 349 353 358 359 353 350 351 349 347 345 346 349 349 346 346 357 20 40
96 78 123 98 29 120 121 91 117 106 126 137 112 134 149 155 152 180 180 186 228 307 1 18 20 33 40 44 47 48 43 36 30 21 15 13 16 13 7 7 7 9 10 11 13 14 17 22 35 49 61 70 79 88
93 85 84 109 105 74 126 104 50 64 57 57 53 104 152 149 164 177 166 173 154 125 84 73 71 70 74 74 68 59 47 38 33 27 24 23 21 17 18 21 23 26 29 34 41 45 51 57 64 68 74 82 90 95
Wind_Speed_850mb
100 92 85 85 86 84 82 79 76 72 67 65 60 55 52 52 48 47 51 43 40 22 42 39 37 39 22 19 10 19 10 7 4 6 9 10 9 12 4 10 16 20 19 11 6 10 25 33 19 18 27 32 46 33
113 114 108 96 90 90 85 82 80 77 74 70 66 63 58 56 55 52 64 58 48 52 40 34 45 71 71 62 43 33 12 20 30 5 6 1 8 7 11 10 0 8 18 12 25 19 14 42 56 75 81 67 77 71
99 112 119 117 102 95 90 85 83 81 77 75 73 70 66 63 61 64 69 69 58 59 70 79 84 90 85 83 74 37 33 50 35 35 18 7 10 7 11 16 15 12 24 10 4 47 57 82 90 87 76 77 87 75
91 102 109 112 109 103 95 90 85 82 80 79 79 77 75 72 70 69 76 81 73 33 17 52 86 82 87 75 74 84 88 44 54 47 25 7 7 31 12 22 27 19 27 18 39 63 90 79 100 79 70 64 47 55
91 80 96 102 113 108 100 96 90 84 80 80 81 84 83 80 77 77 82 89 89 67 15 16 49 63 62 67 79 80 91 87 51 20 12 12 14 9 21 5 20 27 33 20 33 83 65 75 82 48 61 75 77 76
86 87 84 87 92 97 98 92 89 96 91 91 85 82 87 88 78 72 48 90 95 98 33 8 31 64 83 92 89 84 88 83 58 25 20 26 28 23 11 40 24 71 86 89 81 108 94 97 98 97 97 97 71 67
84 86 85 86 83 86 92 91 90 88 86 89 86 83 77 84 83 78 40 21 52 59 25 16 15 31 60 79 81 77 70 45 43 27 20 15 19 29 10 48 59 69 58 64 75 79 73 85 71 72 73 85 77 68
89 92 94 90 91 94 92 95 96 92 86 78 84 77 77 70 67 78 88 83 49 54 17 7 8 7 32 19 18 25 25 41 28 20 11 11 10 17 22 25 80 74 65 70 74 79 93 93 86 85 78 74 68 61
94 98 100 99 101 100 95 94 95 87 84 80 77 71 64 51 35 72 73 53 60 42 12 14 8 6 24 16 15 18 20 5 10 6 8 14 7 18 35 54 67 68 64 69 49 44 51 60 72 81 78 71 65 58
82 90 94 98 105 102 99 97 94 88 82 72 68 37 18 24 47 37 25 35 50 25 20 10 12 8 24 34 14 14 10 6 6 8 9 7 23 89 79 82 67 63 61 58 55 60 59 61 61 59 58 53 51 49
55 69 88 94 96 100 99 94 89 81 68 52 23 28 23 34 35 19 12 16 16 7 22 27 55 20 35 8 9 24 7 4 6 6 10 7 12 8 23 45 55 52 47 38 39 41 45 48 49 47 44 35 33 36
36 46 52 64 89 99 102 97 87 74 68 44 25 32 36 19 12 13 10 8 13 15 14 9 19 28 17 17 8 13 9 5 12 10 5 8 9 3 7 17 23 24 24 22 23 22 20 18 19 20 20 17 17 20
37 33 36 45 51 65 79 87 86 78 78 50 24 16 14 20 9 17 22 12 11 14 27 25 5 21 15 15 9 7 11 12 15 5 10 9 2 11 15 15 12 11 13 10 11 13 14 14 13 12 11 11 13 15
44 40 34 32 36 50 59 73 78 78 51 29 24 14 16 12 15 16 8 7 19 21 40 36 15 6 11 7 6 11 4 5 9 10 14 4 9 12 15 17 16 18 18 17 17 18 18 17 17 17 19 18 18 15
38 42 43 39 29 24 34 54 73 89 37 20 21 13 18 12 7 14 23 22 18 44 60 21 10 8 4 7 4 9 6 12 13 10 5 1 9 12 14 16 19 20 21 22 24 22 21 22 22 21 22 23 23 23
29 33 45 41 38 29 23 64 80 58 19 16 15 10 4 8 3 5 17 18 41 50 29 13 8 8 9 9 10 17 14 18 7 5 8 15 21 23 20 21 24 25 26 28 28 28 29 29 30 29 28 27 26 24
35 43 35 29 32 31 44 61 40 12 14 12 6 9 15 7 10 18 21 27 53 46 8 6 15 14 6 7 8 9 8 2 13 22 25 21 21 19 17 18 22 26 30 34 33 33 34 34 36 35 35 35 35 34
33 32 35 28 27 26 32 36 15 9 6 3 5 7 7 15 22 16 22 37 32 18 19 8 12 8 9 9 6 4 9 26 24 21 19 16 12 10 14 22 28 29 28 27 30 33 33 34 35 37 39 39 40 37
34 28 36 33 33 20 18 15 8 6 4 7 14 13 10 11 12 17 21 46 22 18 18 10 4 6 5 3 5 14 27 15 13 12 12 10 13 20 22 21 23 25 27 30 34 36 37 37 37 38 40 42 43 41
38 43 51 44 35 16 8 7 8 7 4 7 10 10 11 12 14 15 20 27 20 11 4 5 2 4 7 9 17 29 24 17 11 9 9 7 7 10 14 19 24 29 32 33 35 37 39 39 37 41 42 43 44 42
28 30 61 51 25 9 7 7 7 7 9 8 11 9 8 11 8 6 7 13 4 7 4 7 15 20 21 20 16 10 7 9 4 6 8 10 12 18 23 25 27 31 37 41 45 46 44 47 46 44 47 47 47 46
15 56 42 38 9 9 8 7 12 12 7 8 7 7 8 3 5 6 5 3 4 4 7 12 27 27 18 12 5 2 4 6 9 12 16 20 26 28 33 36 40 43 47 51 55 54 55 53 53 55 54 55 53 52
27 36 17 11 9 7 6 14 7 5 5 3 4 5 4 4 5 4 2 2 4 9 13 16 19 11 10 11 5 7 9 11 16 18 21 28 34 39 45 47 50 56 63 66 60 61 64 64 62 59 54 51 52 54
25 12 8 9 9 7 11 6 7 8 7 4 4 5 0 0 3 5 2 6 7 18 24 21 17 14 15 12 9 9 13 18 24 28 33 42 50 55 57 64 68 70 65 66 67 66 61 56 50 49 49 52 54 56
8 7 11 7 6 9 8 7 4 5 5 3 6 3 2 2 4 2 4 5 7 10 14 18 16 18 16 13 14 19 25 32 40 48 50 59 67 75 78 77 78 77 68 61 57 52 51 52 53 53 52 51 54 55
5 4 2 8 5 7 9 10 9 9 8 5 2 2 2 4 4 6 6 6 9 14 16 16 13 9 8 14 24 33 42 49 56 64 68 66 64 65 72 75 79 77 63 52 51 55 59 57 55 54 55 52 48 46
7 7 4 7 12 21 12 12 10 6 8 11 8 7 5 6 10 7 8 14 12 14 10 6 6 13 22 30 37 43 48 53 57 60 60 59 56 51 53 58 62 60 54 54 54 56 60 62 61 59 58 54 48 42
5 11 11 10 7 5 12 8 10 11 9 13 16 9 18 17 11 12 11 19 17 13 7 9 19 27 33 39 46 50 49 50 52 54 51 40 34 32 29 37 44 48 52 52 53 53 53 53 53 52 50 50 47 35
5 17 16 5 3 3 6 9 10 10 26 32 9 8 9 10 17 18 21 18 11 6 12 20 27 33 37 38 40 42 42 42 39 37 39 39 36 30 35 37 40 40 41 42 38 38 39 40 40 42 43 43 38 30
6 15 8 3 5 3 2 5 10 33 23 26 15 14 12 12 21 20 16 10 8 13 17 22 28 31 35 36 31 24 24 20 24 30 35 35 39 41 44 43 41 39 38 37 37 33 25 24 22 20 21 20 17 15
16 5 6 7 5 6 10 22 32 23 20 15 14 10 13 13 17 15 10 10 9 10 15 19 23 25 23 20 17 12 9 16 19 21 24 28 33 37 40 43 42 41 39 37 33 29 25 22 19 16 12 9 6 4
3 4 5 5 2 11 15 6 9 6 6 6 6 10 14 12 10 10 9 7 3 4 5 9 11 13 16 18 20 20 20 19 20 20 21 25 32 37 36 35 34 34 34 33 30 25 20 17 14 14 14 14 14 14
5 6 8 11 6 1 5 9 8 6 9 7 8 6 7 5 8 13 10 9 8 8 8 10 14 16 16 17 17 17 18 20 22 24 27 30 31 31 32 34 35 34 33 31 33 33 30 25 24 22 21 21 23 23
Wind_Direction_850mb
245 246 245 244 245 244 245 248 249 250 249 250 248 246 247 251 251 254 258 251 238 243 256 240 236 217 184 198 161 159 116 198 116 186 191 218 208 218 246 174 182 170 168 201 198 224 277 171 125 185 267 292 302 298
244 244 246 250 246 245 244 246 248 249 250 249 248 247 246 246 248 250 254 251 246 237 259 261 255 255 254 254 250 196 214 172 187 148 234 111 213 188 205 244 158 210 202 199 197 222 242 209 254 273 282 288 291 293
245 244 242 245 247 244 242 242 244 246 247 249 249 248 247 246 245 245 253 256 245 242 254 257 256 264 256 254 252 236 237 235 217 224 185 207 228 152 201 234 199 233 217 229 275 251 259 265 275 278 287 288 293 294
250 249 240 238 242 246 243 242 242 245 246 247 247 248 248 246 246 244 246 251 249 247 242 246 259 253 264 255 246 247 245 238 237 228 212 209 204 194 221 251 236 204 152 216 248 268 275 274 267 279 288 288 288 299
243 248 239 235 237 239 241 243 242 245 248 251 252 251 249 248 246 248 249 248 249 230 261 252 235 249 260 254 253 250 239 232 225 187 210 224 218 208 244 284 235 186 224 223 250 260 261 280 292 297 296 296 299 304
244 243 243 241 241 238 239 242 244 246 252 254 255 257 255 249 246 246 253 250 245 246 252 264 268 240 239 241 244 244 240 228 215 199 218 232 222 200 255 263 238 241 239 237 246 258 267 275 280 284 285 291 295 294
250 251 244 241 242 241 242 244 247 250 255 256 256 256 261 258 252 231 231 252 237 226 228 279 256 226 223 224 231 232 228 214 214 221 232 225 198 204 254 260 268 262 259 260 258 264 272 273 276 286 286 291 295 297
248 248 248 245 240 239 240 242 245 248 252 256 255 258 260 262 266 254 253 253 244 193 215 237 265 187 177 176 195 207 203 203 207 217 223 197 210 221 256 259 266 267 271 271 269 267 265 275 278 285 291 294 295 294
245 250 250 246 243 242 241 242 244 249 250 252 257 262 270 260 231 246 261 253 246 220 224 214 234 240 166 172 186 180 189 180 214 237 214 175 204 228 241 256 265 272 266 271 278 278 274 277 285 290 290 290 289 288
245 244 245 246 241 241 243 241 241 243 248 251 253 247 204 205 235 245 213 193 198 207 238 246 212 214 176 181 183 138 188 229 194 231 162 220 250 250 258 267 279 277 276 280 287 286 287 282 285 286 286 287 282 278
263 254 244 242 242 240 238 237 240 243 244 237 219 203 194 186 170 189 178 186 168 226 220 223 206 213 226 159 172 198 173 203 207 207 189 236 260 255 270 266 269 279 290 295 287 281 279 281 289 293 297 295 282 272
251 263 262 248 242 240 237 235 232 235 231 226 210 177 155 173 183 163 189 194 209 219 199 199 189 185 166 168 138 174 173 145 235 135 179 254 234 91 318 316 309 300 293 293 294 290 286 291 298 304 308 313 303 282
245 250 258 262 253 238 234 232 229 230 229 211 195 156 183 157 180 212 184 204 207 197 184 169 164 156 141 177 113 144 162 205 112 213 231 237 155 7 356 0 354 344 332 329 329 334 342 347 347 340 332 315 301 284
245 244 246 243 249 247 236 228 219 214 195 193 161 179 209 194 202 204 190 177 183 167 148 145 112 161 146 156 138 158 165 128 176 218 238 301 7 23 32 26 32 33 27 21 21 16 9 360 350 348 338 331 322 308
249 248 247 242 238 239 236 222 214 204 191 186 166 216 199 216 212 192 176 144 138 161 148 120 104 155 150 124 162 95 150 228 214 234 218 81 67 58 51 47 43 35 28 23 19 12 8 2 357 359 354 350 344 334
244 259 245 242 237 226 191 182 179 185 190 182 229 157 132 146 146 177 184 147 160 151 134 132 150 162 199 158 160 203 177 220 211 159 123 114 90 69 59 57 50 43 36 32 29 26 21 12 1 4 359 354 344 332
224 236 251 240 231 221 198 194 201 228 208 187 224 168 157 84 149 180 184 186 171 159 182 156 174 196 113 176 215 190 219 136 121 99 113 115 100 86 69 49 39 31 21 13 9 11 7 1 357 357 357 356 353 346
249 235 233 229 222 206 197 199 210 225 216 143 171 152 147 130 142 154 180 173 165 192 150 184 125 181 192 188 225 208 122 119 119 115 111 101 84 55 28 15 12 7 356 344 340 340 339 335 334 334 330 328 328 328
240 205 221 217 201 186 178 192 205 164 138 120 117 130 118 126 125 149 170 177 181 164 146 146 175 203 190 138 136 146 147 142 131 99 89 67 30 10 7 354 342 334 332 331 331 329 326 324 323 321 318 315 312 311
233 195 199 205 196 192 163 138 141 129 138 137 123 113 115 117 125 135 157 171 158 136 137 178 176 102 125 149 156 143 136 132 119 58 16 360 331 319 326 327 328 327 326 327 326 325 321 318 317 318 318 317 315 314
217 218 190 191 176 150 130 133 99 109 118 101 115 115 97 110 108 104 90 131 152 171 146 119 127 121 125 124 123 110 71 33 338 277 270 285 306 312 319 323 318 317 317 316 315 313 308 309 309 310 311 310 309 305
217 184 173 169 122 121 109 113 117 109 99 109 87 72 69 72 72 59 56 81 160 154 143 144 153 142 123 108 104 94 178 224 255 278 287 292 298 308 311 312 308 306 307 310 309 308 306 306 305 303 301 299 297 293
209 176 145 123 113 96 107 124 98 58 96 87 75 77 41 68 44 72 46 228 219 178 152 139 156 166 157 159 195 234 254 274 280 286 290 289 292 297 300 301 301 302 305 305 304 300 303 305 300 297 294 291 290 289
189 168 121 107 101 114 128 72 89 95 87 65 92 108 214 22 41 61 194 266 210 177 182 183 184 193 197 217 202 224 267 279 278 281 289 293 295 297 299 299 300 300 299 298 300 301 298 295 292 289 290 291 291 292
195 142 124 92 111 123 114 120 97 95 112 163 118 140 171 56 85 100 207 266 212 195 188 187 200 206 218 233 265 279 288 297 299 299 301 300 302 302 300 300 299 300 305 307 304 299 295 292 292 294 296 295 295 295
103 1 185 158 126 139 159 128 157 144 122 119 89 100 89 95 98 226 226 191 163 147 149 161 175 203 259 293 303 304 303 301 299 298 301 303 303 304 303 302 303 304 310 305 299 294 292 295 298 299 298 299 298 295
141 182 110 90 120 124 91 72 90 108 138 160 168 154 126 141 217 242 195 181 161 159 168 197 262 295 300 301 299 298 299 300 301 303 306 308 309 304 298 298 300 302 299 296 294 295 297 299 298 298 297 295 295 293
115 157 157 177 111 127 125 126 158 175 159 156 130 166 168 183 206 167 174 174 179 184 212 281 299 303 305 307 308 307 308 310 311 312 313 317 320 317 320 314 308 305 303 301 300 298 299 298 297 298 296 296 298 297
96 141 139 70 81 181 188 158 183 163 145 163 130 179 211 161 157 153 154 166 186 249 297 302 305 308 309 310 309 309 313 315 319 324 331 340 344 345 341 336 329 323 317 313 308 303 301 300 299 300 300 299 300 297
151 162 99 77 132 134 29 93 122 144 138 148 129 123 128 128 155 166 176 193 256 286 297 304 306 316 316 312 313 319 322 332 334 340 343 348 344 349 350 349 347 344 340 337 335 333 330 317 315 315 315 311 301 291
142 146 83 47 76 46 105 113 134 131 138 144 128 112 123 137 166 183 201 233 256 291 308 324 329 328 320 328 349 10 11 1 357 356 344 346 349 353 358 359 353 350 351 349 347 345 346 349 349 346 346 357 20 40
96 78 123 98 29 120 121 91 117 106 126 137 112 134 149 155 152 180 180 186 228 307 1 18 20 33 40 44 47 48 43 36 30 21 15 13 16 13 7 7 7 9 10 11 13 14 17 22 35 49 61 70 79 88
93 85 84 109 105 74 126 104 50 64 57 57 53 104 152 149 164 177 166 173 154 125 84 73 71 70 74 74 68 59 47 38 33 27 24 23 21 17 18 21 23 26 29 34 41 45 51 57 64 68 74 82 90 95